This demonstration page uses our WeatherBlox Daily Observations layout. Learn more.

Left ArrowRight Arrow

Hourly Observations for October 23, 2015

Temp ( °F °C ) Dew Point ( °F °C ) Humidity (%) Winds ( mph kmh ) Pressure ( in mb ) Visibility ( mi km ) Precip ( " mm )
12:15 am 00:15 Cloudy 60 15.5 58 14.7 95 95 SSE 14 22 29.83 1010 10 16 N/A
12:35 am 00:35 Cloudy 60 15.5 58 14.5 94 94 S 9 15 29.83 1010 10 16 N/A
12:55 am 00:55 Cloudy 60 15.5 58 14.6 94 94 S 14 22 29.83 1010 10 16 N/A
1:15 am 01:15 Cloudy 60 15.5 58 14.6 94 94 S 13 20 29.83 1010 10 16 N/A
1:35 am 01:35 Cloudy 60 15.5 58 14.5 94 94 SSE 13 20 29.80 1009 10 16 N/A
1:55 am 01:55 Mostly Cloudy 59 15.2 57 14.1 93 93 SSE 14 22 29.80 1009 10 16 N/A
2:15 am 02:15 Mostly Cloudy 60 15.3 58 14.3 94 94 S 10 17 29.80 1009 10 16 N/A
2:35 am 02:35 Cloudy 60 15.5 58 14.5 94 94 S 12 19 29.80 1009 10 16 N/A
2:55 am 02:55 Cloudy 60 15.5 58 14.5 94 94 S 15 24 29.77 1008 10 16 N/A
3:15 am 03:15 Cloudy 60 15.6 58 14.5 93 93 S 16 26 29.77 1008 10 16 N/A
3:35 am 03:35 Cloudy 60 15.6 58 14.5 93 93 S 14 22 29.77 1008 10 16 N/A
3:55 am 03:55 Cloudy 60 15.6 58 14.5 93 93 S 13 20 29.77 1008 10 16 N/A
4:15 am 04:15 Cloudy 60 15.6 58 14.5 93 93 S 14 22 29.77 1008 10 16 N/A
4:35 am 04:35 Cloudy 60 15.6 58 14.5 93 93 S 13 20 29.77 1008 10 16 N/A
4:55 am 04:55 Cloudy 60 15.5 58 14.2 92 92 S 12 19 29.74 1007 10 16 N/A
5:15 am 05:15 Cloudy 60 15.5 58 14.2 92 92 S 12 19 29.74 1007 10 16 N/A
5:35 am 05:35 Cloudy with Light Rain 60 15.5 58 14.2 92 92 S 10 17 29.74 1007 7 11 N/A
5:55 am 05:55 Cloudy with Drizzle 59 15.1 57 14.1 94 94 S 12 19 29.74 1007 4 6 N/A
6:15 am 06:15 Cloudy 59 15 57 14.1 94 94 S 10 17 29.71 1006 10 16 N/A
6:35 am 06:35 Cloudy 59 15 57 14.1 94 94 S 12 19 29.71 1006 10 16 N/A
6:55 am 06:55 Cloudy 59 15 57 14.1 94 94 S 13 20 29.71 1006 10 16 0.00 0.00
7:15 am 07:15 Cloudy 59 15 57 14.1 94 94 S 10 17 29.71 1006 10 16 N/A
7:35 am 07:35 Cloudy 59 15 57 14 94 94 S 12 19 29.71 1006 10 16 N/A
7:55 am 07:55 Mostly Cloudy 59 15 57 14 94 94 S 12 19 29.71 1006 10 16 N/A
8:15 am 08:15 Mostly Cloudy 59 15 57 14 94 94 S 12 19 29.71 1006 7 11 N/A
8:35 am 08:35 Cloudy 59 15.2 58 14.2 94 94 S 12 19 29.71 1006 10 16 N/A
8:55 am 08:55 Cloudy 60 15.7 58 14.5 93 93 SSW 13 20 29.71 1006 10 16 N/A
9:15 am 09:15 Cloudy with Rain 55 12.6 52 11 90 90 WNW 13 20 29.77 1008 10 16 N/A
9:35 am 09:35 Cloudy with Light Rain 54 12.2 52 11.1 93 93 WNW 9 15 29.77 1008 10 16 0.01 0.25
9:55 am 09:55 Cloudy 55 12.7 53 11.6 93 93 WNW 9 15 29.77 1008 10 16 0.01 0.25
10:15 am 10:15 Mostly Cloudy 56 13.1 53 11.8 92 92 WNW 13 20 29.77 1008 10 16 N/A
10:35 am 10:35 Mostly Cloudy 56 13.5 53 11.8 90 90 WNW 10 17 29.77 1008 10 16 N/A
10:55 am 10:55 Partly Cloudy 58 14.3 53 11.8 85 85 WNW 14 22 29.77 1008 10 16 N/A
11:15 am 11:15 Partly Cloudy 59 14.8 53 11.8 82 82 WNW 12 19 29.74 1007 10 16 N/A
11:35 am 11:35 Partly Cloudy 59 15 53 11.4 79 79 WNW 16 26 29.74 1007 10 16 N/A
11:55 am 11:55 Mostly Cloudy 60 15.6 53 11.5 77 77 W 15 24 29.74 1007 10 16 N/A
12:15 pm 12:15 Mostly Cloudy 59 15.1 52 10.9 76 76 WNW 17 28 29.77 1008 10 16 N/A
12:35 pm 12:35 Mostly Cloudy 58 14.5 51 10.6 78 78 WNW 18 30 29.77 1008 10 16 N/A
12:55 pm 12:55 Mostly Cloudy 59 14.8 51 10.5 76 76 WNW 14 22 29.77 1008 10 16 0.00 0.00
1:15 pm 13:15 Mostly Cloudy 59 15.2 51 10.6 74 74 WNW 15 24 29.77 1008 10 16 N/A
1:35 pm 13:35 Cloudy 60 15.5 51 10.3 71 71 WNW 16 26 29.77 1008 10 16 N/A
1:55 pm 13:55 Cloudy 59 15 50 10.1 73 73 NW 14 22 29.77 1008 10 16 N/A
2:15 pm 14:15 Cloudy 59 15 50 10.1 73 73 WNW 18 30 29.77 1008 10 16 N/A
2:35 pm 14:35 Cloudy 59 15 49 9.7 71 71 WNW 17 28 29.77 1008 10 16 N/A
2:55 pm 14:55 Cloudy 58 14.6 49 9.6 72 72 WNW 22 35 29.77 1008 10 16 N/A
3:15 pm 15:15 Cloudy 58 14.2 48 9.1 72 72 NW 24 39 29.80 1009 10 16 N/A
3:35 pm 15:35 Cloudy 57 13.7 47 8.6 72 72 NW 16 26 29.83 1010 10 16 N/A
3:55 pm 15:55 Cloudy 57 13.8 48 8.7 72 72 NW 17 28 29.83 1010 10 16 N/A
4:15 pm 16:15 Cloudy 56 13.6 47 8.6 72 72 NW 13 20 29.85 1011 10 16 N/A
4:35 pm 16:35 Cloudy 57 13.7 47 8.5 71 71 NNW 16 26 29.85 1011 10 16 N/A
4:55 pm 16:55 Cloudy 56 13.5 47 8.1 70 70 NW 20 31 29.88 1012 10 16 N/A
5:15 pm 17:15 Cloudy 56 13.5 46 7.8 69 69 NNW 23 37 29.88 1012 10 16 N/A
5:35 pm 17:35 Cloudy 56 13.5 46 7.8 69 69 NNW 18 30 29.88 1012 10 16 N/A
5:55 pm 17:55 Cloudy 56 13.5 46 7.5 67 67 NNW 21 33 29.88 1012 10 16 N/A
6:15 pm 18:15 Cloudy 56 13.3 46 7.7 69 69 NW 13 20 29.88 1012 10 16 N/A
6:35 pm 18:35 Cloudy 55 12.8 47 8.1 73 73 NW 23 37 29.91 1013 10 16 N/A
6:55 pm 18:55 Cloudy 55 12.8 47 8.3 74 74 NNW 16 26 29.91 1013 10 16 N/A
7:15 pm 19:15 Cloudy 55 12.8 47 8.1 73 73 NNW 16 26 29.94 1014 10 16 N/A
7:35 pm 19:35 Cloudy 55 12.8 46 7.7 71 71 NW 14 22 29.94 1014 10 16 N/A
7:55 pm 19:55 Cloudy 55 13 46 7.5 69 69 NNW 15 24 29.94 1014 10 16 N/A
8:15 pm 20:15 Cloudy 55 12.8 45 7.2 69 69 NW 20 31 30.00 1016 10 16 N/A
8:35 pm 20:35 Mostly Cloudy 54 12.1 44 6.8 70 70 NW 13 20 30.00 1016 10 16 N/A
8:55 pm 20:55 Mostly Cloudy 53 11.5 45 7 74 74 NW 14 22 30.03 1017 10 16 N/A
9:15 pm 21:15 Partly Cloudy 53 11.7 45 7 73 73 NW 16 26 30.03 1017 10 16 N/A
9:35 pm 21:35 Clear 51 10.8 44 6.9 77 77 NW 14 22 30.03 1017 10 16 N/A
9:55 pm 21:55 Partly Cloudy 51 10.5 45 7 79 79 NW 13 20 30.03 1017 10 16 N/A
10:15 pm 22:15 Clear 50 10.1 44 6.8 80 80 NW 10 17 30.06 1018 10 16 N/A
10:35 pm 22:35 Clear 49 9.3 44 6.7 84 84 WNW 8 13 30.06 1018 10 16 N/A
10:55 pm 22:55 Mostly Cloudy 49 9.2 45 7 86 86 WNW 8 13 30.06 1018 10 16 N/A
11:15 pm 23:15 Partly Cloudy 48 9 44 6.8 86 86 WNW 9 15 30.06 1018 10 16 N/A
11:35 pm 23:35 Clear 47 8.5 44 6.5 87 87 WNW 8 13 30.06 1018 10 16 N/A
11:55 pm 23:55 Partly Cloudy 47 8.5 44 6.5 87 87 NW 9 15 30.06 1018 10 16 N/A

Powered by AerisWeather